[[{"header":{"parameterUnit":"m.s-1","parameterCategory":1,"la1":30.2991,"la2":30.254,"lo1":-89.0895,"lo2":-89.0444,"dy":0.0017,"dx":0.0017,"nx":28,"ny":28,"refTime":"2025-09-19T09:00:00:Z","depth":0,"parameterNumber":2,"parameterNumberName":"U-component_of_WINDS"},"data":[0,0,0,0,0,0,0,0,0,0,0,0,0,0,0,0,0,0,0,0,0,0,0,0,0,0,0,0,0,0,0,0,0,0,0,0,0,0,0,0,0,0,0,0,0,0,0,0,0,0,0,0,0,0,0,0,0,0,2.8043,2.8044,0,2.8178,2.8179,2.8181,2.8189,2.8187,2.8186,2.8184,2.8321,2.8325,2.833,0,0,0,0,0,0,0,0,0,0,0,0,0,2.7789,2.7793,2.8042,2.8044,2.8046,2.8177,2.8179,2.8181,2.8189,2.8187,2.8185,2.8184,2.8319,2.8325,2.8331,0,0,0,0,0,0,0,0,0,0,0,0,0,2.7909,2.7795,2.8042,2.8066,2.8069,2.8177,2.8179,2.8181,2.8189,2.8187,2.8185,2.8183,2.8317,2.8324,2.8332,2.8424,0,0,2.8355,2.8358,0,0,0,0,0,0,0,0,2.7902,2.7918,2.8061,2.8064,2.8068,2.8164,2.814,2.8263,2.819,2.8144,2.8184,2.8182,2.827,2.8281,2.8312,2.8431,2.8437,2.8356,2.836,2.8363,2.8366,0,0,0,0,0,0,0,2.7893,2.7912,2.8096,2.8063,2.8067,2.8069,2.8083,2.8163,2.8218,2.8148,2.8149,2.8165,2.8272,2.8304,2.8315,2.8439,2.8355,2.8362,2.8367,2.837,2.8638,2.864,0,0,0,0,0,0,2.7881,2.7905,2.8092,2.81,2.7978,2.8075,2.8091,2.8136,2.8217,2.8228,2.8166,2.8164,2.8293,2.8306,2.832,2.8432,2.8363,2.837,2.8375,2.8635,2.8639,2.8641,0,0,0,0,0,0,2.7875,2.7898,2.8086,2.8003,2.8027,2.8082,2.8132,2.8139,2.8172,2.8232,2.8241,2.819,2.8291,2.8309,2.8398,2.8437,2.8374,2.8381,2.8632,2.8636,2.864,2.8657,0,0,0,0,0,0,2.7868,2.7896,2.7932,2.8004,2.8031,2.8163,2.8134,2.8144,2.8185,2.8184,2.8256,2.8266,2.8291,2.8387,2.8405,2.8446,2.8387,2.8629,2.8634,2.8639,2.8653,2.8661,2.8668,0,0,0,0,0,2.7859,2.7932,2.7934,2.7956,2.8078,2.8165,2.8181,2.8209,2.8189,2.8225,2.8263,2.8263,2.843,2.8396,2.8417,2.846,2.8627,2.8633,2.8638,2.865,2.866,2.8668,0,0,0,0,0,0,2.7863,2.7941,2.7945,2.8043,2.8097,2.8166,2.8213,2.8219,2.8279,2.8276,2.8308,2.8324,2.8411,2.8445,2.8405,2.8553,2.8526,2.8536,2.8527,2.8537,2.8544,2.8533,2.8393,0,0,0,0,0,2.7875,2.794,2.8005,2.8085,2.8112,2.8158,2.8197,2.8214,2.8271,2.8294,2.8339,2.8393,2.8458,2.85,2.8563,2.8659,2.8673,2.8699,2.8706,2.8712,2.872,2.8771,2.8782,2.866,2.866,2.866,0,0,2.7901,2.7952,2.7991,2.8087,2.8131,2.8196,2.8177,2.8247,2.8295,2.8305,2.839,2.8425,2.8488,2.8581,2.8624,2.8612,2.8757,2.8719,2.8723,2.8728,2.8778,2.8789,2.88,2.8664,2.8664,2.8663,0,0,2.7981,2.8027,2.8098,2.8142,2.8209,2.8239,2.8256,2.8324,2.8348,2.8435,2.8442,2.85,2.8611,2.8655,2.8692,2.8787,2.8789,2.8807,2.8844,2.8893,2.8903,2.8911,2.8943,2.8954,2.8815,2.8815,2.8815,0,2.8004,2.8103,2.8133,2.8203,2.8244,2.8256,2.8326,2.8368,2.8452,2.8479,2.8465,2.8603,2.8647,2.8749,2.8772,2.8802,2.8821,2.8798,2.8899,2.8908,2.8916,2.8947,2.8959,2.8816,2.8816,2.8816,2.8816,0,2.8127,2.8195,2.8244,2.8325,2.8372,2.8442,2.8481,2.8525,2.8538,2.8569,2.8656,2.8709,2.8781,2.8807,2.8821,2.8911,2.8901,2.8893,2.8865,2.8929,2.8958,2.897,2.8819,2.8818,2.8818,2.8817,0,0,2.8212,2.8308,2.8325,2.8361,2.8436,2.8488,2.8558,2.863,2.8665,2.8723,2.878,2.8874,2.8866,2.8908,2.8927,2.8971,2.9039,2.8957,2.8959,2.8968,2.9139,2.9142,2.9156,2.9042,2.9045,2.9046,2.9132,0,2.8298,2.8423,2.8451,2.8558,2.862,2.8632,2.8692,2.8744,2.8775,2.8831,2.8865,2.8929,2.8916,2.8941,2.8985,2.9022,2.9074,2.9016,2.9094,2.9096,2.9075,2.9171,2.9176,2.9255,2.9144,2.9146,2.9148,0,2.8415,2.8474,2.8587,2.8652,2.8679,2.8733,2.8799,2.8854,2.8912,2.8931,2.8978,2.8992,2.9063,2.9034,2.9131,2.9092,2.9125,2.9148,2.9152,2.9158,2.9124,2.9178,2.9281,2.9291,2.9166,2.9165,2.9164,0,2.8462,2.8571,2.8652,2.8683,2.8761,2.8798,2.8832,2.8888,2.8929,2.8987,2.9013,2.9079,2.9114,2.9165,2.9195,2.9172,2.929,2.9264,2.9306,2.9305,2.9328,2.9326,2.9435,2.9354,2.9354,2.9354,2.9353,0,2.8553,2.8621,2.8674,2.8723,2.8799,2.8831,2.8905,2.8939,2.8988,2.9044,2.9059,2.911,2.9149,2.9205,2.923,2.9305,2.9322,2.9338,2.9343,2.9335,2.9333,2.9356,2.935,2.9357,2.9356,2.9356,2.9355,0,2.8618,2.8657,2.8745,2.8812,2.883,2.8883,2.8939,2.8987,2.9018,2.9088,2.9106,2.9154,2.9221,2.9257,2.9342,2.9358,2.9442,2.9445,2.9422,2.9424,2.9463,2.9457,2.9589,2.9607,2.9516,2.9517,2.9517,0,2.8673,2.8725,2.8798,2.8836,2.8871,2.8932,2.8974,2.9007,2.9049,2.9119,2.9157,2.9225,2.9281,2.9387,2.9429,2.9493,2.9497,2.9539,2.9507,2.9496,2.9494,2.949,2.9494,2.9543,2.9544,2.9545,2.9546,0,2.8765,2.8781,2.884,2.8906,2.8955,2.9008,2.9061,2.9091,2.9133,2.9179,2.9248,2.9291,2.9377,2.9443,2.951,2.9544,2.9551,2.9556,2.9568,2.9559,2.9543,2.955,2.9435,2.9552,2.9551,2.9551,2.955,2.955,2.8825,2.8871,2.8929,2.8994,2.9037,2.9085,2.9133,2.917,2.9228,2.93,2.9316,2.9388,2.9443,2.9534,2.957,2.9626,2.9617,2.9636,2.9641,2.9644,2.9644,2.9536,2.9639,2.9638,2.9638,2.9638,2.9638,0,2.8915,2.8953,2.9013,2.9085,2.9136,2.914,2.9198,2.9239,2.9302,2.9354,2.9408,2.9486,2.9551,2.9598,2.9663,2.9698,2.9703,2.9714,2.9711,2.9718,2.965,2.9631,2.9709,2.9709,2.9709,2.9709,2.9709,2.9709,2.8968,2.9046,2.9069,2.9167,2.9204,2.9275,2.9307,2.9351,2.9392,2.9479,2.9532,2.9563,2.9612,2.9681,2.9739,2.9751,2.9774,2.9784,2.9796,2.9731,2.9723,2.9716,2.9698,2.9789,2.9789,2.9859,2.986,2.986]},{"header":{"parameterUnit":"m.s-1","parameterCategory":1,"la1":30.2991,"la2":30.254,"lo1":-89.0895,"lo2":-89.0444,"dy":0.0017,"dx":0.0017,"nx":28,"ny":28,"refTime":"2025-09-19T09:00:00:Z","depth":0,"parameterNumber":3,"parameterNumberName":"V-component_of_WINDS"},"data":[0,0,0,0,0,0,0,0,0,0,0,0,0,0,0,0,0,0,0,0,0,0,0,0,0,0,0,0,0,0,0,0,0,0,0,0,0,0,0,0,0,0,0,0,0,0,0,0,0,0,0,0,0,0,0,0,0,0,2.6,2.5999,0,2.598,2.598,2.598,2.5912,2.591,2.5909,2.5907,2.5888,2.5888,2.5889,0,0,0,0,0,0,0,0,0,0,0,0,0,2.5978,2.5979,2.6,2.5999,2.5999,2.598,2.598,2.598,2.5912,2.591,2.5908,2.5906,2.5887,2.5888,2.5889,0,0,0,0,0,0,0,0,0,0,0,0,0,2.5976,2.5979,2.6,2.5963,2.596,2.598,2.598,2.5979,2.5912,2.591,2.5908,2.5906,2.5887,2.5888,2.589,2.5944,0,0,2.5894,2.5894,0,0,0,0,0,0,0,0,2.5976,2.5977,2.5969,2.5966,2.5962,2.5946,2.5965,2.5968,2.5913,2.593,2.5907,2.5904,2.5909,2.5908,2.591,2.5943,2.5942,2.5894,2.5895,2.5895,2.5896,0,0,0,0,0,0,0,2.5976,2.5977,2.5992,2.5969,2.5964,2.5947,2.5945,2.5965,2.5933,2.5929,2.5924,2.5922,2.5907,2.5909,2.5909,2.5942,2.5894,2.5895,2.5896,2.5896,2.6017,2.6019,0,0,0,0,0,0,2.5982,2.5978,2.5992,2.5991,2.5963,2.595,2.5947,2.5953,2.5932,2.5927,2.5924,2.5919,2.5907,2.5907,2.5908,2.5969,2.5895,2.5897,2.5897,2.6015,2.6018,2.602,0,0,0,0,0,0,2.5981,2.5984,2.5993,2.5983,2.5983,2.5953,2.5961,2.5954,2.5956,2.5929,2.5923,2.5932,2.5906,2.5906,2.5935,2.5967,2.5897,2.5898,2.6012,2.6016,2.6019,2.6092,0,0,0,0,0,0,2.5981,2.5984,2.6005,2.5984,2.5984,2.6021,2.5963,2.5955,2.5959,2.5952,2.5935,2.593,2.5904,2.5933,2.5936,2.5968,2.5899,2.6009,2.6014,2.6018,2.6087,2.6098,2.6107,0,0,0,0,0,2.5981,2.6026,2.6006,2.6008,2.6009,2.6023,2.6023,2.5992,2.5961,2.5982,2.5964,2.593,2.5963,2.5937,2.594,2.5972,2.6007,2.6012,2.6017,2.6082,2.6096,2.6107,0,0,0,0,0,0,2.6052,2.6023,2.6,2.6041,2.6035,2.6012,2.6036,2.6008,2.6011,2.6004,2.5965,2.5962,2.5997,2.5987,2.5958,2.6023,2.5979,2.5986,2.6028,2.604,2.605,2.6052,2.5901,0,0,0,0,0,2.6073,2.6087,2.6061,2.6099,2.6097,2.6068,2.6073,2.6049,2.6041,2.6039,2.6023,2.6017,2.6026,2.6033,2.6039,2.6085,2.608,2.6109,2.6119,2.6127,2.6133,2.6155,2.6167,2.6038,2.6038,2.6038,0,0,2.6115,2.6101,2.6112,2.6113,2.6106,2.6121,2.6066,2.6085,2.6095,2.6042,2.6068,2.6056,2.6047,2.6084,2.61,2.6078,2.6168,2.6134,2.6141,2.6142,2.6162,2.6174,2.6185,2.6041,2.6041,2.604,0,0,2.62,2.6191,2.6221,2.6215,2.6204,2.6184,2.6191,2.6172,2.6162,2.6188,2.6148,2.616,2.6176,2.617,2.617,2.6251,2.622,2.6255,2.6308,2.633,2.634,2.6349,2.6377,2.6388,2.626,2.6261,2.6261,0,2.6254,2.6275,2.6241,2.6261,2.6262,2.6214,2.6244,2.6239,2.6232,2.6233,2.6208,2.6227,2.6217,2.6252,2.6272,2.6273,2.628,2.6256,2.6342,2.635,2.6358,2.6384,2.6395,2.6265,2.6264,2.6264,2.6264,0,2.6342,2.6357,2.6383,2.6376,2.6379,2.6405,2.6374,2.6382,2.6358,2.634,2.6366,2.6353,2.6355,2.6362,2.6339,2.6393,2.6379,2.6349,2.6304,2.6375,2.6399,2.6409,2.6271,2.6269,2.6268,2.6267,0,0,2.6472,2.6444,2.6454,2.645,2.6434,2.6445,2.6468,2.6469,2.6477,2.6473,2.649,2.6505,2.6476,2.6475,2.6451,2.647,2.6534,2.6437,2.6436,2.6455,2.6592,2.6614,2.6627,2.6514,2.6515,2.6517,2.6592,0,2.6552,2.6589,2.6557,2.66,2.6613,2.6567,2.6586,2.6578,2.6562,2.6571,2.6553,2.6563,2.6525,2.6524,2.6541,2.6523,2.6561,2.6517,2.6529,2.653,2.6532,2.6639,2.6663,2.6735,2.6602,2.6603,2.6604,0,2.665,2.6649,2.6693,2.6673,2.6677,2.6695,2.6694,2.6703,2.6692,2.6679,2.6678,2.6648,2.6668,2.6625,2.6652,2.6623,2.6626,2.6617,2.6619,2.6619,2.6571,2.6641,2.6758,2.6768,2.6619,2.6618,2.6617,0,2.6739,2.6749,2.6776,2.6774,2.6752,2.6765,2.6756,2.6744,2.6747,2.6745,2.6746,2.6748,2.6749,2.675,2.6721,2.6693,2.6752,2.6706,2.6741,2.6741,2.6755,2.6754,2.6873,2.6758,2.6758,2.6758,2.6758,0,2.6831,2.6859,2.6816,2.6832,2.6862,2.6826,2.6857,2.6843,2.6832,2.6845,2.6806,2.6819,2.678,2.6788,2.6766,2.6791,2.6792,2.6781,2.6775,2.6785,2.6786,2.6786,2.678,2.6761,2.676,2.676,2.6759,0,2.6935,2.6907,2.6934,2.691,2.6904,2.6927,2.6907,2.6921,2.6902,2.6918,2.692,2.689,2.6898,2.6869,2.6873,2.6858,2.6895,2.688,2.6898,2.6893,2.6929,2.6926,2.7051,2.7065,2.6943,2.6944,2.6945,0,2.6995,2.7016,2.6994,2.6999,2.6992,2.7002,2.7004,2.6969,2.6973,2.6962,2.6977,2.6982,2.6984,2.6999,2.6977,2.6979,2.6964,2.7008,2.6964,2.6973,2.6964,2.6963,2.6964,2.7017,2.7019,2.702,2.7021,0,2.7105,2.7089,2.7094,2.7093,2.7097,2.7095,2.709,2.7097,2.7059,2.7066,2.7073,2.7074,2.7077,2.7082,2.708,2.707,2.7039,2.7035,2.7043,2.7052,2.7061,2.7056,2.6922,2.7032,2.7031,2.703,2.7029,2.7029,2.7188,2.7203,2.719,2.7196,2.7188,2.7185,2.7196,2.7178,2.7183,2.7183,2.7162,2.7173,2.7161,2.7154,2.7148,2.7156,2.7136,2.7148,2.715,2.7154,2.7159,2.7061,2.7156,2.7155,2.7155,2.7155,2.7155,0,2.7294,2.7283,2.7289,2.7283,2.7287,2.7257,2.725,2.7256,2.7266,2.7258,2.726,2.7268,2.7272,2.725,2.7252,2.7262,2.7248,2.7264,2.7262,2.726,2.7178,2.7171,2.7275,2.7275,2.7275,2.7275,2.7275,2.7275,2.735,2.7374,2.7357,2.7377,2.7365,2.7376,2.7374,2.737,2.7363,2.7373,2.7376,2.7362,2.7348,2.7347,2.735,2.7343,2.7345,2.7366,2.7354,2.7278,2.7266,2.7255,2.7248,2.7367,2.7367,2.7436,2.7436,2.7437]}]]